Rawlins, WY

9:26 PM MDT on June 26, 2017 (GMT -0600)
Rawlins Municipal

Weather History for KRWL - January, 2013

Change the Weather History Date:

Friday, January 18, 2013

  Actual Average Record
Temperature  
Mean Temperature 29 °F 22 °F  
Max Temperature 35 °F 31 °F 46 °F (1999)
Min Temperature 22 °F 12 °F -27 °F (1984)
Degree Days  
Heating Degree Days 36 43  
Month to date heating degree days 942 774  
Since 1 July heating degree days 3893 4228  
Cooling Degree Days 0 0  
Month to date cooling degree days 0 0  
Year to date cooling degree days 0 0  
Moisture  
Dew Point 9 °F    
Average Humidity 45    
Maximum Humidity 55    
Minimum Humidity 35    
Precipitation  
Precipitation 0.00 in 0.01 in 0.22 in (1988)
Month to date precipitation T 0.22  
Year to date precipitation T 0.22  
Sea Level Pressure  
Sea Level Pressure 30.28 in    
Wind  
Wind Speed 23 mph (WSW)    
Max Wind Speed 36 mph    
Max Gust Speed 43 mph    
Visibility 10 miles    
Events      
T = Trace of Precipitation, MM = Missing Value Source: NWS Daily Summary

Daily Weather History Graph

Daily Weather History Graph

Search for Another Location

Airport or City:

Trip Planner

Search our weather history database for the weather conditions in past years. The results will help you decide how hot, cold, wet, or windy it might be!

Date:

Astronomy

Jan. 18, 2013 Rise Set
Actual Time 7:32 AM MST 5:07 PM MST
Civil Twilight 7:01 AM MST 5:37 PM MST
Nautical Twilight 6:27 AM MST 6:11 PM MST
Astronomical Twilight 5:54 AM MST 6:44 PM MST
Moon 11:04 AM MST (1/18) 12:07 AM MST (1/18)
Length of Visible Light 10h 35m
Length of Day
9h 34m
Waxing Crescent, 48% of the Moon is Illuminated
Jan 18
Waxing Crescent
Jan 18
First Quarter
Jan 26
Full
Feb 3
Last Quarter
Feb 10
New

Hourly Weather History & Observations

Time (MST) Temp. Windchill Dew Point Humidity Pressure Visibility Wind Dir Wind Speed Gust Speed Precip Events Conditions
12:53 AM 24.1 °F 11.0 °F 7.0 °F 48% 30.34 in 10.0 mi WSW 16.1 mph 29.9 mph N/A   Clear
1:53 AM 24.1 °F 10.6 °F 7.0 °F 48% 30.33 in 10.0 mi WSW 17.3 mph 26.5 mph N/A   Clear
2:53 AM 24.1 °F 9.4 °F 7.0 °F 48% 30.34 in 10.0 mi WSW 20.7 mph 27.6 mph N/A   Clear
3:53 AM 24.1 °F 9.0 °F 7.0 °F 48% 30.33 in 10.0 mi WSW 21.9 mph - N/A   Clear
4:53 AM 21.9 °F 7.3 °F 6.1 °F 51% 30.33 in 10.0 mi WSW 18.4 mph 25.3 mph N/A   Clear
5:53 AM 23.0 °F 8.3 °F 6.1 °F 48% 30.35 in 10.0 mi WSW 19.6 mph 31.1 mph N/A   Clear
6:53 AM 23.0 °F 8.3 °F 6.1 °F 48% 30.35 in 10.0 mi SW 19.6 mph 26.5 mph N/A   Clear
7:53 AM 24.1 °F 9.4 °F 6.1 °F 46% 30.32 in 10.0 mi WSW 20.7 mph 29.9 mph N/A   Clear
8:53 AM 27.0 °F 12.5 °F 7.0 °F 43% 30.33 in 10.0 mi WSW 23.0 mph 32.2 mph N/A   Clear
9:53 AM 30.9 °F 15.9 °F 8.1 °F 38% 30.32 in 10.0 mi WSW 31.1 mph 39.1 mph N/A   Clear
10:53 AM 33.1 °F 19.3 °F 9.0 °F 37% 30.28 in 10.0 mi WSW 28.8 mph 34.5 mph N/A   Clear
11:53 AM 34.0 °F 20.3 °F 10.0 °F 37% 30.25 in 10.0 mi WSW 29.9 mph 40.3 mph N/A   Clear
12:53 PM 34.0 °F 19.9 °F 10.0 °F 37% 30.24 in 10.0 mi WSW 32.2 mph 38.0 mph N/A   Clear
1:53 PM 34.0 °F 20.8 °F 10.9 °F 38% 30.22 in 10.0 mi WSW 27.6 mph 41.4 mph N/A   Clear
2:53 PM 34.0 °F 21.0 °F 12.0 °F 40% 30.20 in 10.0 mi WSW 26.5 mph 36.8 mph N/A   Clear
3:53 PM 34.0 °F 20.8 °F 12.0 °F 40% 30.21 in 10.0 mi WSW 27.6 mph 36.8 mph N/A   Clear
4:53 PM 30.9 °F 16.4 °F 10.9 °F 43% 30.23 in 10.0 mi WSW 28.8 mph 40.3 mph N/A   Clear
5:53 PM 28.9 °F 14.5 °F 10.9 °F 47% 30.24 in 10.0 mi WSW 25.3 mph 36.8 mph N/A   Clear
6:53 PM 28.9 °F 14.5 °F 10.0 °F 45% 30.25 in 10.0 mi WSW 25.3 mph 38.0 mph N/A   Clear
8:53 PM 25.0 °F 11.7 °F 10.0 °F 53% 30.28 in 10.0 mi WSW 17.3 mph - N/A   Clear
9:53 PM 26.1 °F 12.0 °F 10.0 °F 51% 30.23 in 10.0 mi WSW 20.7 mph 27.6 mph N/A   Clear
10:53 PM 25.0 °F 20.7 °F 9.0 °F 51% 30.23 in 10.0 mi Variable 3.5 mph - N/A   Clear
11:53 PM 26.1 °F 13.1 °F 9.0 °F 49% 30.22 in 10.0 mi WSW 17.3 mph 24.2 mph N/A   Clear